Regional Weather Roundup
Issued by NWS

Home | Current Version | Previous Version | Graphics & Text | Print | Product List | Glossary On
Versions: 1 2 3 4 5 6 7 8 9 10 11 12 13 14 15 16 17 18 19 20 21 22 23 24 25 26 27 28 29 30 31 32 33 34 35 36 37 38 39 40 41 42 43 44 45 46 47 48 49 50
000
ASUS43 KMKX 262000
RWRWI

WISCONSIN REGIONAL WEATHER ROUNDUP
NATIONAL WEATHER SERVICE MILWAUKEE/SULLIVAN WI
300 PM CDT THU APR 26 2018

NOTE: "FAIR" INDICATES FEW OR NO CLOUDS BELOW 12,000 FEET WITH NO
SIGNIFICANT WEATHER AND/OR OBSTRUCTIONS TO VISIBILITY.

WIZ001-002-006>008-014>016-023>028-262100-
NORTHWEST WISCONSIN

CITY           SKY/WX    TMP DP  RH WIND       PRES   REMARKS
SUPERIOR ARPT  FAIR      58  34  40 N14       29.87R
ASHLAND        CLOUDY    49  37  63 N17       29.88R
HAYWARD        PTSUNNY   59  35  40 N9G22     29.83R
SIREN          FAIR      61  32  33 N14G22    29.85R
CUMBERLAND     FAIR      59  34  38 NW10G20   29.83S
RICE LAKE      FAIR      62  35  36 NW9G22    29.84R
CHETEK         FAIR      64  35  34 NW10G18   29.82R
LADYSMITH      PTSUNNY   63  34  33 W14       29.81S
EAU CLAIRE     NOT AVBL
MENOMONIE      FAIR      67  32  27 W16       29.81S
NEW RICHMOND   FAIR      63  34  34 NW9G22    29.85R
OSCEOLA        FAIR      63  35  35 N14G23    29.87F
$$

WIZ003>005-009-010-017-018-262100-
NORTH CENTRAL WISCONSIN

CITY           SKY/WX    TMP DP  RH WIND       PRES   REMARKS
MANITOWISH WTR PTSUNNY   58  31  36 W8        29.79S
ARBOR VITAE    PTSUNNY   59  31  34 W12       29.79S
WOODRUFF       PTSUNNY   59  31  34 W12       29.79S
RHINELANDER    FAIR      62  32  32 W12       29.79F
EAGLE RIVER    FAIR      58  27  30 W12       29.78F
LAND O LAKES   FAIR      59  28  31 W5        29.80S
PHILLIPS       CLOUDY    61  33  34 SW9       29.78F
TOMAHAWK       FAIR      61  29  29 W7        29.80S
MEDFORD        FAIR      61  32  34 W15       29.79F
MERRILL        PTSUNNY   62  33  32 W7        29.80F
$$

WIZ029-030-035-036-043>047-262100-
CENTRAL WISCONSIN

CITY           SKY/WX    TMP DP  RH WIND       PRES   REMARKS
WAUSAU         FAIR      62  30  29 SW8G22    29.78F
MOSINEE        PTSUNNY   64  28  25 W16G23    29.81F
MARSHFIELD     PTSUNNY   63  28  26 W18G25    29.79F
STEVENS POINT  FAIR      63  29  27 W8        29.81F
WAUPACA        FAIR      68  27  21 SW14      29.81F
WAUTOMA        FAIR      66  27  23 VRB6G21   29.82F
WISC RAPIDS    FAIR      68  24  19 SW12G23   29.81F
CAMP DOUGLAS   NOT AVBL
$$

WIZ011>013-019>022-031-037>040-048>050-262100-
NORTHEAST WISCONSIN

CITY           SKY/WX    TMP DP  RH WIND       PRES   REMARKS
ANTIGO         FAIR      60  35  39 NW12      29.81S
SHAWANO        FAIR      65  32  28 W13G21    29.80S
OCONTO         FAIR      64  31  29 SW15G21   29.80F
STURGEON BAY   FAIR      61  38  42 VRB5G18   29.82S
GREEN BAY      FAIR      63  36  36 SW14G20   29.81F
MANITOWOC      FAIR      56  37  49 SE12      29.84F
APPLETON       MOSUNNY   64  25  22 SW14G21   29.81F
CLINTONVILLE   FAIR      66  28  24 SW10G21   29.81F
OSHKOSH        FAIR      63  27  25 SW8G18    29.82F
$$

WIZ032>034-041-042-053>061-262100-
SOUTHWEST WISCONSIN

CITY           SKY/WX    TMP DP  RH WIND       PRES   REMARKS
LA CROSSE      FAIR      70  32  24 SW17G24   29.82F
SPARTA         FAIR      67  31  25 SW7G18    29.83F
VIROQUA        FAIR      66  32  28 W12G20    29.83F
BOSCOBEL       FAIR      71  30  21 SW12G23   29.84F
PRAIRIE DU CHI FAIR      69  27  20 SW7G16    29.84F
PLATTEVILLE    FAIR      67  32  27 SW14G21   29.88F
$$

WIZ056-057-062-063-064-067-068-262100-
SOUTH CENTRAL WISCONSIN

CITY           SKY/WX    TMP DP  RH WIND       PRES   REMARKS
REEDSBURG      FAIR      67  31  26 S7G22     29.83F
BARABOO/DELLS  FAIR      65  29  26 SW13      29.84F
LONE ROCK      NOT AVBL
MINERAL POINT  FAIR      68  27  21 W12       29.87F
MADISON        CLOUDY    65  31  28 VRB7      29.85F
MIDDLETON      FAIR      68  24  19 W10       29.86F
WATERTOWN      FAIR      64  32  29 SW7       29.86F
MONROE         FAIR      64  27  24 W5        29.88F
JANESVILLE     PTSUNNY   66  27  22 SW8       29.87F
$$

WIZ051-052-058>065-066-070>072-262100-
SOUTHEAST WISCONSIN

CITY           SKY/WX    TMP DP  RH WIND       PRES   REMARKS
MILWAUKEE      PTSUNNY   65  31  28 W9        29.88F
WAUKESHA       SUNNY     63  32  31 SW9G17    29.89F
MILWAUKEE/TIMM SUNNY     64  25  22 SW8G16    29.88F
RACINE         FAIR      52  28  39 S16       29.90F
BURLINGTON     FAIR      64  28  26 SW9G18    29.89F
KENOSHA        FAIR      64  30  27 W10       29.88F
FOND DU LAC    FAIR      64  27  24 SW14G20   29.84F
SHEBOYGAN      FAIR      64  31  28 SW14G22   29.84F
WEST BEND      FAIR      63  30  29 SW10      29.86F
JUNEAU         FAIR      63  32  31 SW7       29.87F
$$

LSZ147-162-262100-
LAKE SUPERIOR

STATION/POSITION TIME  TEMP    WIND        PRES    WAVE
                       AIR SEA DIR/SP/G            HT/PER
                 (UTC) (F)     (DEG/KT/KT) (MB)    (FT/S)
DEVILS ISLAND    1900   41     360/ 14/ 14 1012.1R
SAXON HARBOR     1930   40      10/ 10/ 15 1011.5R
$$

LMZ867-665-643>646-262100-
LAKE MICHIGAN

STATION/POSITION TIME  TEMP    WIND        PRES    WAVE
                       AIR SEA DIR/SP/G            HT/PER
                 (UTC) (F)     (DEG/KT/KT) (MB)    (FT/S)
NORTHPORT PIER   1940   47                 1009.5S
KEWAUNEE LAKESHO 1930   43     170/ 16/ 18 1010.0S
SHEBOYGAN LAKESH 1900   42     170/ 21/ 23 1011.7F
PORT WASHINGTON  1930   48     180/ 10/ 13 1013.2S
MILWAUKEE LAKESH 1930   42     140/ 19/ 22   N/A
KENOSHA   LAKESH 1900   43                 1012.9
$$

TC  - TEMPERATURE IN CELSIUS
VSB - VISIBILITY IN STATUTE MILES
WCI - WIND CHILL INDEX
HX  - HEAT INDEX





USA.gov is the U.S. government's official web portal to all federal, state and local government web resources and services.